[[{"header":{"parameterUnit":"m.s-1","parameterCategory":2,"la1":30.2991,"la2":30.254,"lo1":-89.0895,"lo2":-89.0444,"dy":0.0017,"dx":0.0017,"nx":28,"ny":28,"refTime":"2023-03-16T21:00:00:Z","depth":"0","parameterNumber":2,"parameterNumberName":"U-component_of_CURRENTS"},"data":[0,0,0,0,0,0,0,0,0,0,0,0,0,0,0,0,0,0,0,0,0,0,0,0,0,0,0,0,0,0,0,0,0,0,0,0,0,0,0,0,0,0,0,0,0,0,0,0,0,0,0,0,0,0,0,0,0,0,0.3881,0.3882,0,0.3997,0.3998,0.3999,0.4015,0.4014,0.4013,0.4012,0.4024,0.4025,0.4026,0,0,0,0,0,0,0,0,0,0,0,0,0,0.3733,0.3735,0.388,0.3882,0.3883,0.3997,0.3998,0.3999,0.4015,0.4014,0.4013,0.4012,0.4023,0.4025,0.4026,0,0,0,0,0,0,0,0,0,0,0,0,0,0.3817,0.3736,0.388,0.3906,0.3909,0.3996,0.3998,0.4,0.4015,0.4014,0.4012,0.4011,0.4023,0.4025,0.4026,0.4068,0,0,0.4032,0.4033,0,0,0,0,0,0,0,0,0.3812,0.3822,0.39,0.3904,0.3908,0.3991,0.3951,0.4018,0.4016,0.3974,0.4012,0.401,0.4005,0.4008,0.4033,0.4068,0.4069,0.4032,0.4033,0.4034,0.4035,0,0,0,0,0,0,0,0.3806,0.3817,0.3925,0.3902,0.3907,0.3933,0.3942,0.3964,0.3993,0.3977,0.3979,0.3994,0.4006,0.4032,0.4033,0.4069,0.4032,0.4034,0.4035,0.4036,0.4176,0.4179,0,0,0,0,0,0,0.3793,0.3812,0.3922,0.3929,0.3857,0.3936,0.3947,0.3965,0.3996,0.4,0.3996,0.3995,0.4029,0.4031,0.4034,0.4117,0.4034,0.4036,0.4037,0.4174,0.4177,0.418,0,0,0,0,0,0,0.3789,0.3802,0.3917,0.3873,0.389,0.394,0.396,0.3968,0.3998,0.4011,0.4012,0.4017,0.4028,0.4031,0.4072,0.4116,0.4037,0.4039,0.4171,0.4175,0.4178,0.4262,0,0,0,0,0,0,0.3785,0.38,0.3803,0.3873,0.3892,0.3976,0.3962,0.3971,0.401,0.401,0.403,0.403,0.4027,0.407,0.4074,0.4117,0.404,0.4167,0.4172,0.4177,0.4256,0.4268,0.4279,0,0,0,0,0,0.3779,0.3796,0.3802,0.3816,0.3897,0.3977,0.399,0.4019,0.4012,0.4037,0.4055,0.4029,0.4104,0.4074,0.4078,0.4122,0.4165,0.4171,0.4177,0.4251,0.4266,0.4278,0,0,0,0,0,0,0.3737,0.3802,0.381,0.3845,0.3907,0.398,0.4008,0.4028,0.4066,0.4063,0.4063,0.4066,0.4117,0.4114,0.408,0.4179,0.4131,0.4138,0.4185,0.4199,0.4211,0.4208,0.4042,0,0,0,0,0,0.3729,0.3757,0.3827,0.3859,0.389,0.395,0.3983,0.4011,0.4057,0.4073,0.4084,0.4107,0.4149,0.4166,0.419,0.4246,0.4275,0.4279,0.429,0.43,0.4303,0.4406,0.4428,0.4199,0.4199,0.4199,0,0,0.3726,0.3762,0.3779,0.3851,0.3901,0.3962,0.3967,0.4031,0.4079,0.4067,0.412,0.4142,0.4172,0.4236,0.4259,0.4236,0.4385,0.4307,0.4315,0.4313,0.4415,0.4437,0.4457,0.4203,0.4202,0.4202,0,0,0.3746,0.3766,0.3803,0.3855,0.3931,0.3974,0.3994,0.407,0.41,0.4165,0.4173,0.4223,0.4271,0.4311,0.4338,0.4429,0.4439,0.4438,0.4498,0.4599,0.4619,0.4636,0.4719,0.4743,0.4447,0.4448,0.4448,0,0.3743,0.3794,0.3829,0.3883,0.3931,0.398,0.4045,0.4092,0.4167,0.4205,0.4186,0.4304,0.4312,0.442,0.445,0.4454,0.451,0.4441,0.4615,0.4633,0.4649,0.4729,0.4754,0.4452,0.4452,0.4451,0.4451,0,0.3795,0.384,0.3873,0.3951,0.4001,0.4073,0.4141,0.4191,0.4225,0.4271,0.4371,0.4408,0.448,0.4498,0.45,0.4631,0.4634,0.4615,0.4577,0.4677,0.4755,0.478,0.4459,0.4457,0.4456,0.4455,0,0,0.3805,0.3894,0.3907,0.3952,0.4048,0.4102,0.4184,0.4286,0.4352,0.4411,0.4511,0.4582,0.4603,0.4635,0.4658,0.4738,0.4897,0.473,0.4733,0.4807,0.513,0.5045,0.5064,0.4921,0.4925,0.4929,0.5143,0,0.3852,0.3942,0.3979,0.4078,0.4142,0.4206,0.4276,0.4361,0.4435,0.4533,0.46,0.4694,0.4659,0.4715,0.4791,0.4877,0.4965,0.484,0.5025,0.503,0.4939,0.509,0.4827,0.4989,0.5167,0.5171,0.5174,0,0.39,0.3957,0.4049,0.4151,0.4184,0.424,0.4371,0.4443,0.4579,0.4643,0.4749,0.4804,0.4941,0.4889,0.5092,0.5023,0.5083,0.5133,0.5143,0.5046,0.4992,0.4916,0.5027,0.4921,0.5212,0.5209,0.5207,0,0.3894,0.4009,0.4076,0.4116,0.4232,0.4286,0.4349,0.4473,0.4544,0.4725,0.4808,0.4961,0.5054,0.517,0.5261,0.5208,0.5475,0.5413,0.5394,0.5388,0.5188,0.5156,0.5206,0.556,0.5559,0.5559,0.5558,0,0.3934,0.3996,0.4076,0.4121,0.4198,0.4281,0.4381,0.4475,0.4615,0.4738,0.4857,0.5,0.5132,0.5285,0.5348,0.5464,0.5557,0.544,0.5454,0.521,0.5179,0.5092,0.504,0.5567,0.5565,0.5563,0.5562,0,0.3923,0.3982,0.406,0.4167,0.4196,0.4246,0.4362,0.4462,0.4589,0.4767,0.4837,0.5058,0.528,0.5394,0.5603,0.5567,0.5534,0.5698,0.5392,0.5364,0.5183,0.5144,0.5019,0.4882,0.5712,0.5711,0.5711,0,0.3927,0.3966,0.4054,0.4103,0.4153,0.4232,0.4313,0.4434,0.4553,0.482,0.4932,0.5172,0.5348,0.5592,0.5605,0.571,0.5552,0.5496,0.5322,0.5174,0.5144,0.4932,0.481,0.5107,0.5101,0.5097,0.5093,0,0.394,0.3961,0.4026,0.4113,0.4193,0.4257,0.4383,0.4437,0.4638,0.4769,0.5007,0.5156,0.5386,0.5374,0.547,0.5489,0.5205,0.5406,0.5342,0.4757,0.4442,0.4314,0.4968,0.5054,0.5058,0.5061,0.5063,0.5064,0.3945,0.398,0.407,0.4145,0.4232,0.4304,0.431,0.4452,0.4562,0.4714,0.4955,0.5047,0.5127,0.5216,0.5193,0.4966,0.4985,0.4799,0.4797,0.4622,0.4366,0.4931,0.4968,0.4972,0.4974,0.4977,0.4979,0,0.3966,0.4029,0.4113,0.42,0.4273,0.4309,0.4389,0.436,0.4425,0.4568,0.4699,0.4712,0.4675,0.4673,0.4557,0.4387,0.4138,0.428,0.3922,0.3861,0.4455,0.4303,0.4088,0.4088,0.4088,0.4088,0.4088,0.4089,0.4001,0.4085,0.4127,0.4231,0.4276,0.4259,0.4249,0.4194,0.4204,0.4144,0.409,0.4169,0.431,0.4297,0.4094,0.3976,0.3695,0.3489,0.3566,0.3997,0.4044,0.4088,0.3935,0.3645,0.3645,0.2742,0.2735,0.2731]},{"header":{"parameterUnit":"m.s-1","parameterCategory":2,"la1":30.2991,"la2":30.254,"lo1":-89.0895,"lo2":-89.0444,"dy":0.0017,"dx":0.0017,"nx":28,"ny":28,"refTime":"2023-03-16T21:00:00:Z","depth":"0","parameterNumber":3,"parameterNumberName":"V-component_of_CURRENTS"},"data":[0,0,0,0,0,0,0,0,0,0,0,0,0,0,0,0,0,0,0,0,0,0,0,0,0,0,0,0,0,0,0,0,0,0,0,0,0,0,0,0,0,0,0,0,0,0,0,0,0,0,0,0,0,0,0,0,0,0,0.0202,0.0202,0,0.0187,0.0187,0.0187,0.0155,0.0154,0.0154,0.0153,0.0101,0.0101,0.01,0,0,0,0,0,0,0,0,0,0,0,0,0,0.0214,0.0214,0.0202,0.0202,0.0202,0.0187,0.0187,0.0187,0.0155,0.0154,0.0154,0.0153,0.0102,0.0101,0.01,0,0,0,0,0,0,0,0,0,0,0,0,0,0.0206,0.0214,0.0202,0.0183,0.0181,0.0187,0.0187,0.0187,0.0155,0.0154,0.0153,0.0152,0.0102,0.0101,0.01,0.0115,0,0,0.0097,0.0096,0,0,0,0,0,0,0,0,0.0207,0.0206,0.0187,0.0185,0.0183,0.0171,0.0172,0.0161,0.0156,0.0167,0.0153,0.0152,0.0121,0.0119,0.012,0.0113,0.0111,0.0097,0.0096,0.0095,0.0095,0,0,0,0,0,0,0,0.0207,0.0206,0.0197,0.0186,0.0184,0.0179,0.0177,0.017,0.0151,0.0166,0.0163,0.016,0.012,0.0121,0.0119,0.011,0.0097,0.0096,0.0095,0.0095,0.0098,0.0099,0,0,0,0,0,0,0.0208,0.0207,0.0198,0.0197,0.0191,0.0179,0.0177,0.0177,0.0151,0.0146,0.0161,0.0158,0.0124,0.012,0.0117,0.0139,0.0095,0.0094,0.0094,0.0097,0.0098,0.0099,0,0,0,0,0,0,0.0208,0.0207,0.0198,0.02,0.0199,0.018,0.018,0.0177,0.0177,0.0148,0.0142,0.0164,0.0123,0.0118,0.0118,0.0136,0.0094,0.0093,0.0097,0.0098,0.0099,0.018,0,0,0,0,0,0,0.0209,0.0208,0.0211,0.0201,0.0198,0.0214,0.0181,0.0177,0.0176,0.0173,0.0149,0.0143,0.0121,0.012,0.0117,0.0134,0.0092,0.0096,0.0097,0.0098,0.0177,0.0184,0.019,0,0,0,0,0,0.0209,0.0227,0.0211,0.021,0.0203,0.0215,0.0214,0.0197,0.0177,0.0191,0.017,0.0144,0.0126,0.012,0.0116,0.0134,0.0095,0.0097,0.0098,0.0174,0.0182,0.019,0,0,0,0,0,0,0.0241,0.0225,0.0208,0.022,0.0219,0.0209,0.0223,0.0204,0.0199,0.0191,0.0159,0.0153,0.0154,0.0135,0.013,0.0137,0.0104,0.0105,0.0162,0.017,0.0177,0.0228,0.0091,0,0,0,0,0,0.0247,0.0254,0.0238,0.0251,0.0253,0.0237,0.0238,0.0224,0.0215,0.0212,0.0192,0.0171,0.016,0.0158,0.0142,0.0156,0.0152,0.0162,0.0169,0.0175,0.0213,0.0222,0.0234,0.0104,0.0104,0.0104,0,0,0.0265,0.0256,0.026,0.0258,0.0257,0.0279,0.0237,0.0246,0.0263,0.0207,0.0227,0.0192,0.0167,0.0176,0.0176,0.0164,0.0204,0.0177,0.0182,0.0218,0.0225,0.0238,0.0249,0.0105,0.0105,0.0105,0,0,0.0315,0.0297,0.0322,0.0323,0.0318,0.0312,0.0316,0.0305,0.0301,0.0311,0.0269,0.0256,0.0242,0.0231,0.0224,0.0262,0.0234,0.0243,0.0329,0.0337,0.0348,0.0358,0.0352,0.0361,0.0254,0.0254,0.0254,0,0.0335,0.0362,0.0334,0.0359,0.0374,0.0333,0.0373,0.0367,0.0354,0.0371,0.0329,0.0325,0.0277,0.0314,0.0312,0.028,0.0278,0.03,0.0348,0.0358,0.0367,0.0358,0.0367,0.0258,0.0258,0.0257,0.0257,0,0.04,0.0423,0.0444,0.0461,0.0473,0.05,0.0487,0.0498,0.0479,0.0474,0.0496,0.0441,0.0453,0.0413,0.0371,0.0414,0.0387,0.035,0.0334,0.0386,0.0371,0.038,0.0264,0.0262,0.0261,0.026,0,0,0.0446,0.0483,0.049,0.0531,0.0528,0.056,0.0588,0.0625,0.0682,0.0637,0.0721,0.0649,0.0625,0.0615,0.0555,0.0544,0.0564,0.0481,0.0479,0.0487,0.0582,0.0515,0.0516,0.0539,0.0541,0.0543,0.0541,0,0.051,0.0592,0.0584,0.0675,0.0726,0.0706,0.0754,0.0773,0.0785,0.0851,0.0795,0.0838,0.0702,0.0722,0.0686,0.0614,0.0593,0.0569,0.0522,0.0521,0.0465,0.0526,0.0486,0.0477,0.0548,0.0549,0.055,0,0.0579,0.0629,0.0728,0.0815,0.0836,0.0884,0.098,0.1014,0.1068,0.1082,0.1102,0.1071,0.1062,0.0939,0.0847,0.0842,0.0726,0.0645,0.0642,0.0568,0.047,0.0439,0.0488,0.029,0.0562,0.0561,0.056,0,0.0652,0.0736,0.0829,0.0852,0.0931,0.0991,0.1038,0.1097,0.1173,0.1255,0.1339,0.1296,0.1313,0.1182,0.0978,0.0935,0.0873,0.0793,0.0622,0.0615,0.0569,0.0554,0.0438,0.0736,0.0736,0.0736,0.0736,0,0.073,0.0809,0.0882,0.0938,0.1071,0.1092,0.1245,0.1282,0.1395,0.1545,0.1479,0.1599,0.1375,0.1302,0.109,0.089,0.0957,0.0669,0.0626,0.0591,0.0579,0.0393,0.0263,0.0736,0.0736,0.0736,0.0736,0,0.0804,0.0841,0.0965,0.1073,0.1114,0.1217,0.1374,0.1497,0.1576,0.1785,0.1834,0.184,0.176,0.1504,0.1295,0.1048,0.0723,0.0753,0.0714,0.0666,0.0313,0.019,0.0043,-0.005,0.0598,0.0597,0.0595,0,0.0853,0.0925,0.1065,0.115,0.121,0.1357,0.1472,0.1577,0.173,0.1958,0.209,0.2076,0.2112,0.1754,0.1311,0.0941,0.0712,0.0634,0.0532,0.0319,0.015,0.0066,-0.0007,0.0494,0.0492,0.0491,0.0489,0,0.0959,0.1006,0.1104,0.1265,0.1404,0.1569,0.1753,0.1901,0.208,0.2277,0.2524,0.258,0.2238,0.1846,0.1276,0.1,0.0477,0.0589,0.0394,0.0094,-0.0025,-0.0144,0.0455,0.0475,0.0477,0.0478,0.0478,0.0479,0.1037,0.1123,0.1242,0.1395,0.1559,0.1779,0.1942,0.2173,0.2446,0.2765,0.2813,0.2918,0.2318,0.1554,0.1146,0.036,0.0379,0.0119,-0.0001,-0.0055,-0.0182,0.0379,0.0326,0.0327,0.0327,0.0327,0.0328,0,0.1114,0.121,0.1366,0.1564,0.1761,0.1828,0.2127,0.232,0.2666,0.2932,0.3142,0.2884,0.2159,0.142,0.0355,-0.015,-0.0319,-0.0406,-0.0531,-0.0568,-0.0041,-0.0083,-0.0257,-0.0257,-0.0256,-0.0256,-0.0256,-0.0256,0.1166,0.1303,0.1376,0.1688,0.1852,0.2125,0.2306,0.2598,0.2817,0.3123,0.3168,0.3164,0.2576,0.0788,-0.0383,-0.0653,-0.0957,-0.1066,-0.1178,-0.0837,-0.0796,-0.0758,-0.0826,-0.1152,-0.1154,-0.1647,-0.1652,-0.1657]}],[{"header":{"parameterUnit":"m.s-1","parameterCategory":2,"la1":30.2991,"la2":30.254,"lo1":-89.0895,"lo2":-89.0444,"dy":0.0017,"dx":0.0017,"nx":28,"ny":28,"refTime":"2023-03-16T21:00:00:Z","depth":"2","parameterNumber":2,"parameterNumberName":"U-component_of_CURRENTS"},"data":[0,0,0,0,0,0,0,0,0,0,0,0,0,0,0,0,0,0,0,0,0,0,0,0,0,0,0,0,0,0,0,0,0,0,0,0,0,0,0,0,0,0,0,0,0,0,0,0,0,0,0,0,0,0,0,0,0,0,0.3254,0.3255,0,0.3321,0.3321,0.3321,0.3357,0.3358,0.3358,0.3359,0.3398,0.3398,0.3399,0,0,0,0,0,0,0,0,0,0,0,0,0,0.3106,0.3108,0.3254,0.3255,0.3257,0.3321,0.3321,0.3321,0.3357,0.3358,0.3358,0.3359,0.3398,0.3398,0.3399,0,0,0,0,0,0,0,0,0,0,0,0,0,0.3165,0.3109,0.3254,0.3287,0.3291,0.332,0.3321,0.3321,0.3357,0.3358,0.3359,0.336,0.3398,0.3398,0.3399,0.3383,0,0,0.3401,0.3401,0,0,0,0,0,0,0,0,0.3162,0.317,0.3281,0.3285,0.3289,0.3337,0.3283,0.3343,0.3356,0.3325,0.3359,0.336,0.3378,0.3381,0.3382,0.3385,0.3387,0.3401,0.3401,0.3402,0.3402,0,0,0,0,0,0,0,0.3158,0.3167,0.3274,0.3282,0.3288,0.3281,0.329,0.3294,0.334,0.3328,0.3332,0.3349,0.338,0.3382,0.3384,0.3387,0.3401,0.3401,0.3402,0.3402,0.3519,0.3521,0,0,0,0,0,0,0.3164,0.3164,0.3272,0.3277,0.3234,0.3284,0.3294,0.3316,0.3341,0.3348,0.3348,0.3351,0.338,0.3383,0.3385,0.3484,0.3402,0.3402,0.3403,0.3516,0.3519,0.3522,0,0,0,0,0,0,0.3161,0.3173,0.327,0.3226,0.3239,0.3286,0.331,0.3317,0.3348,0.3358,0.3363,0.3378,0.3381,0.3384,0.3433,0.3481,0.3402,0.3403,0.3513,0.3517,0.3521,0.3607,0,0,0,0,0,0,0.3156,0.3172,0.3186,0.3227,0.3242,0.3306,0.331,0.3317,0.3359,0.3363,0.3384,0.3387,0.3382,0.3433,0.3434,0.3481,0.3404,0.3509,0.3515,0.3519,0.3601,0.3613,0.3624,0,0,0,0,0,0.3151,0.3179,0.3186,0.32,0.3262,0.3308,0.3314,0.3346,0.3359,0.3376,0.3408,0.3388,0.3466,0.3435,0.3436,0.3484,0.3507,0.3513,0.3519,0.3595,0.3611,0.3624,0,0,0,0,0,0,0.3122,0.3187,0.3196,0.3242,0.3278,0.3317,0.3346,0.3361,0.3397,0.341,0.3414,0.3419,0.3477,0.3473,0.3439,0.3536,0.3486,0.3493,0.3544,0.3558,0.357,0.3585,0.3404,0,0,0,0,0,0.3122,0.3164,0.3211,0.3249,0.3274,0.331,0.3334,0.3355,0.3395,0.3412,0.3426,0.3458,0.3497,0.3523,0.3538,0.3588,0.3601,0.3624,0.3636,0.3646,0.3662,0.3737,0.3757,0.3542,0.3542,0.3542,0,0,0.3123,0.3164,0.3188,0.3246,0.3281,0.3325,0.3327,0.3379,0.3421,0.3409,0.347,0.3488,0.3518,0.3578,0.3605,0.3586,0.3714,0.3654,0.3662,0.3672,0.3745,0.3766,0.3784,0.3546,0.3545,0.3545,0,0,0.3145,0.3186,0.3224,0.3258,0.3318,0.3349,0.3371,0.3419,0.3451,0.3509,0.3521,0.3579,0.362,0.3661,0.3688,0.3776,0.3765,0.3781,0.3863,0.3936,0.3955,0.3971,0.401,0.4029,0.3799,0.3799,0.3799,0,0.314,0.3199,0.3239,0.3281,0.3323,0.3367,0.3415,0.3454,0.3508,0.3544,0.3545,0.3651,0.3668,0.3769,0.381,0.3803,0.3832,0.3803,0.3952,0.3968,0.3983,0.402,0.4039,0.3804,0.3803,0.3803,0.3802,0,0.3187,0.3234,0.3268,0.3341,0.3381,0.3439,0.3499,0.3538,0.3587,0.3629,0.3728,0.3767,0.3839,0.3858,0.3868,0.3989,0.397,0.3947,0.3912,0.401,0.4042,0.4061,0.3811,0.3809,0.3807,0.3806,0,0,0.3183,0.3282,0.3293,0.3328,0.3425,0.3458,0.3542,0.3628,0.37,0.3757,0.3858,0.3941,0.3972,0.4007,0.4027,0.4099,0.4229,0.4084,0.4085,0.4116,0.4382,0.4263,0.4272,0.4238,0.4242,0.4245,0.4359,0,0.3213,0.3286,0.3341,0.3421,0.3467,0.3534,0.3619,0.3695,0.3774,0.3874,0.3948,0.4055,0.403,0.4095,0.4162,0.4223,0.4285,0.4199,0.4288,0.4291,0.4169,0.4293,0.3976,0.4042,0.4378,0.4381,0.4383,0,0.3247,0.3288,0.337,0.3467,0.35,0.3563,0.3695,0.3779,0.3924,0.3995,0.4103,0.4162,0.43,0.4259,0.441,0.4362,0.4384,0.441,0.4414,0.4288,0.4208,0.4001,0.4064,0.4414,0.4412,0.441,0.4408,0,0.3219,0.3312,0.3379,0.3413,0.3534,0.359,0.3675,0.3816,0.3897,0.4092,0.4184,0.4321,0.4427,0.4491,0.4548,0.4505,0.469,0.4628,0.453,0.452,0.4259,0.4219,0.4721,0.4721,0.4721,0.4721,0.472,0,0.3249,0.3292,0.3371,0.3406,0.3497,0.3591,0.3726,0.3827,0.3987,0.4119,0.426,0.4376,0.4498,0.46,0.4615,0.4646,0.4747,0.4573,0.456,0.4278,0.4241,0.4561,0.4541,0.4725,0.4724,0.4723,0.4722,0,0.3228,0.3293,0.3353,0.3456,0.3493,0.3565,0.3726,0.3821,0.4001,0.4177,0.4253,0.4451,0.4611,0.4685,0.4808,0.4732,0.4771,0.4741,0.4389,0.4331,0.4528,0.4511,0.4651,0.4649,0.4646,0.4644,0.4642,0,0.3225,0.3257,0.335,0.3387,0.3445,0.3556,0.3647,0.3817,0.3913,0.4209,0.4283,0.4499,0.4606,0.4734,0.469,0.4695,0.4762,0.4359,0.4207,0.4557,0.4531,0.4518,0.4505,0.3896,0.3888,0.3882,0.3877,0,0.32,0.3245,0.3297,0.3346,0.3431,0.353,0.3659,0.3696,0.3935,0.4074,0.4262,0.4372,0.4536,0.4398,0.4405,0.435,0.4334,0.4228,0.4733,0.3953,0.3852,0.3823,0.3834,0.3821,0.3827,0.3831,0.3834,0.3836,0.318,0.3194,0.3248,0.3311,0.3408,0.3478,0.3508,0.3618,0.3725,0.3849,0.4044,0.41,0.416,0.4003,0.3878,0.3783,0.4059,0.3853,0.387,0.3894,0.3778,0.3676,0.359,0.3594,0.3598,0.3601,0.3604,0,0.3124,0.3159,0.3192,0.3277,0.3344,0.3447,0.3504,0.3464,0.3514,0.3613,0.3699,0.3419,0.3348,0.3412,0.3193,0.3159,0.3098,0.3014,0.2918,0.2979,0.3033,0.2867,0.244,0.2436,0.2431,0.2428,0,0,0.3104,0.309,0.3102,0.3182,0.3285,0.3333,0.3345,0.3205,0.3173,0.3055,0.3031,0.3224,0.3364,0.2873,0.2798,0.2589,0.2752,0.2483,0.3437,0.3392,0.3439,0.3559,0.338,0,0,0,0,0]},{"header":{"parameterUnit":"m.s-1","parameterCategory":2,"la1":30.2991,"la2":30.254,"lo1":-89.0895,"lo2":-89.0444,"dy":0.0017,"dx":0.0017,"nx":28,"ny":28,"refTime":"2023-03-16T21:00:00:Z","depth":"2","parameterNumber":3,"parameterNumberName":"V-component_of_CURRENTS"},"data":[0,0,0,0,0,0,0,0,0,0,0,0,0,0,0,0,0,0,0,0,0,0,0,0,0,0,0,0,0,0,0,0,0,0,0,0,0,0,0,0,0,0,0,0,0,0,0,0,0,0,0,0,0,0,0,0,0,0,0.0053,0.0053,0,0.0035,0.0035,0.0035,0.0006,0.0006,0.0005,0.0005,-0.0035,-0.0036,-0.0037,0,0,0,0,0,0,0,0,0,0,0,0,0,0.0064,0.0064,0.0053,0.0053,0.0053,0.0035,0.0035,0.0035,0.0006,0.0006,0.0005,0.0004,-0.0035,-0.0036,-0.0037,0,0,0,0,0,0,0,0,0,0,0,0,0,0.0054,0.0064,0.0053,0.0036,0.0034,0.0035,0.0035,0.0035,0.0006,0.0006,0.0005,0.0004,-0.0035,-0.0036,-0.0037,-0.0024,0,0,-0.0039,-0.0039,0,0,0,0,0,0,0,0,0.0055,0.0054,0.0039,0.0037,0.0035,0.0021,0.0024,0.0014,0.0007,0.0018,0.0005,0.0004,-0.0018,-0.002,-0.0021,-0.0026,-0.0028,-0.0039,-0.004,-0.004,-0.004,0,0,0,0,0,0,0,0.0056,0.0055,0.0047,0.0038,0.0036,0.0029,0.0027,0.0022,0.0005,0.0017,0.0014,0.0012,-0.002,-0.002,-0.0022,-0.0029,-0.0039,-0.004,-0.004,-0.0041,-0.0038,-0.0037,0,0,0,0,0,0,0.0057,0.0055,0.0047,0.0046,0.0042,0.003,0.0027,0.0027,0.0005,0.0001,0.0012,0.001,-0.0018,-0.0021,-0.0024,-0.0,-0.004,-0.0041,-0.0041,-0.0038,-0.0038,-0.0037,0,0,0,0,0,0,0.0058,0.0057,0.0048,0.0049,0.0048,0.003,0.0031,0.0027,0.0028,0.0002,-0.0003,0.0016,-0.0019,-0.0022,-0.0023,-0.0003,-0.0041,-0.0042,-0.0039,-0.0038,-0.0037,0.004,0,0,0,0,0,0,0.0058,0.0057,0.0062,0.005,0.0048,0.0062,0.0031,0.0027,0.0027,0.0024,0.0004,-0.0001,-0.002,-0.0022,-0.0024,-0.0004,-0.0042,-0.004,-0.0039,-0.0038,0.0036,0.0043,0.0049,0,0,0,0,0,0.0059,0.0078,0.0062,0.0061,0.0053,0.0063,0.0063,0.0047,0.0028,0.0042,0.002,0.0,-0.0017,-0.0021,-0.0024,-0.0005,-0.004,-0.0039,-0.0038,0.0034,0.0042,0.0049,0,0,0,0,0,0,0.0089,0.0076,0.0059,0.0073,0.007,0.0059,0.0072,0.0054,0.0048,0.0041,0.0012,0.0007,0.0009,-0.0008,-0.0012,-0.0003,-0.0034,-0.0033,0.0022,0.0029,0.0035,0.007,-0.0043,0,0,0,0,0,0.0095,0.0105,0.0089,0.0103,0.0105,0.0087,0.0088,0.0074,0.0065,0.0061,0.0043,0.0024,0.0014,0.0013,-0.0002,0.0012,-0.0017,0.002,0.0026,0.0032,0.0057,0.0025,0.0031,-0.0033,-0.0033,-0.0033,0,0,0.0111,0.0105,0.011,0.0109,0.0107,0.0127,0.0087,0.0096,0.0111,0.0058,0.0075,0.0043,0.0019,0.0029,0.0029,0.0019,0.003,0.0033,0.0038,0.0061,0.0027,0.0033,0.0038,-0.0032,-0.0032,-0.0032,0,0,0.0154,0.0144,0.0166,0.017,0.0167,0.0161,0.0165,0.0152,0.0147,0.0155,0.0115,0.01,0.0091,0.0078,0.007,0.0103,0.0057,0.0091,0.0162,0.0129,0.0135,0.0139,0.0092,0.0092,0.0102,0.0102,0.0102,0,0.0169,0.0198,0.0177,0.0202,0.0218,0.0181,0.0216,0.021,0.0196,0.0203,0.0172,0.0154,0.012,0.014,0.0145,0.012,0.0088,0.0137,0.0139,0.0143,0.0146,0.0097,0.0096,0.0106,0.0105,0.0105,0.0105,0,0.023,0.0253,0.0274,0.0293,0.0307,0.0334,0.0321,0.0327,0.0309,0.0299,0.0305,0.0257,0.0255,0.0229,0.0199,0.0211,0.0174,0.0144,0.0124,0.0157,0.0103,0.01,0.0111,0.011,0.0109,0.0108,0,0,0.0261,0.0307,0.0314,0.0347,0.0358,0.0382,0.0409,0.0434,0.047,0.0429,0.0475,0.0426,0.0395,0.0385,0.0334,0.0301,0.0273,0.0241,0.0238,0.0203,0.0191,0.0137,0.0128,0.0241,0.0242,0.0242,0.0138,0,0.0316,0.0391,0.0396,0.0474,0.0517,0.0505,0.0548,0.0557,0.0558,0.0589,0.053,0.0552,0.0458,0.0466,0.0414,0.0322,0.0273,0.0303,0.0159,0.0155,0.0109,0.0126,0.0168,0.0077,0.0135,0.0134,0.0134,0,0.0375,0.042,0.051,0.0584,0.0603,0.0647,0.0717,0.0748,0.0768,0.0771,0.0765,0.0723,0.0687,0.0596,0.0452,0.0476,0.0347,0.0252,0.0245,0.0175,0.0097,0.0056,0.0069,0.0129,0.0129,0.013,0.013,0,0.0425,0.0502,0.0585,0.0609,0.0681,0.0729,0.0771,0.081,0.0865,0.0902,0.0956,0.0878,0.0876,0.0709,0.0512,0.0487,0.0337,0.0275,0.0096,0.009,0.009,0.0083,0.0163,0.0163,0.0163,0.0163,0.0164,0,0.0492,0.0555,0.0623,0.0672,0.0781,0.0806,0.093,0.0955,0.1027,0.1137,0.1067,0.1127,0.0906,0.0793,0.0573,0.0339,0.038,0.012,0.0068,0.0113,0.011,0.0132,0.0129,0.0159,0.016,0.0161,0.0162,0,0.0543,0.0585,0.0685,0.0778,0.0815,0.0898,0.1034,0.1124,0.1187,0.1332,0.1361,0.1317,0.1179,0.0927,0.0662,0.0443,0.0207,0.0103,0.0164,0.012,-0.0042,-0.0039,-0.0104,-0.0107,-0.0109,-0.0111,-0.0112,0,0.0577,0.0635,0.0759,0.0825,0.0878,0.1005,0.1103,0.1195,0.1309,0.146,0.154,0.1463,0.1424,0.1007,0.0619,0.0231,0.018,0.0,-0.005,-0.0021,-0.0065,-0.0059,-0.0053,-0.0032,-0.0032,-0.0033,-0.0033,0,0.0638,0.0685,0.0769,0.0894,0.101,0.1146,0.13,0.1429,0.1581,0.1723,0.1864,0.1844,0.1472,0.1096,0.0557,0.0287,0.0064,-0.0028,0.0012,0.0028,0.0038,-0.0003,0.0003,-0.0039,-0.0038,-0.0038,-0.0038,-0.0037,0.0681,0.0743,0.0842,0.0968,0.1097,0.1274,0.1447,0.1641,0.1862,0.2091,0.2041,0.2028,0.1605,0.0908,0.0464,0.0004,0.0012,-0.0159,-0.0153,-0.0147,-0.0121,-0.0116,-0.0218,-0.0218,-0.0219,-0.0219,-0.0219,0,0.0723,0.0788,0.09,0.1058,0.1215,0.1277,0.1564,0.1767,0.2093,0.2206,0.23,0.1885,0.1453,0.0971,0.0296,-0.0126,-0.0147,-0.0266,-0.0183,-0.0175,-0.0168,-0.0141,-0.0244,-0.0246,-0.0247,-0.0248,0,0,0.0747,0.0847,0.0902,0.1127,0.1259,0.152,0.1727,0.2023,0.2195,0.2328,0.2301,0.2152,0.1594,0.1096,0.0537,0.0161,0.0083,0.007,0.0135,0.0307,0.0319,-0.0064,-0.0008,0,0,0,0,0]}],[{"header":{"parameterUnit":"m.s-1","parameterCategory":2,"la1":30.2991,"la2":30.254,"lo1":-89.0895,"lo2":-89.0444,"dy":0.0017,"dx":0.0017,"nx":28,"ny":28,"refTime":"2023-03-16T21:00:00:Z","depth":"4","parameterNumber":2,"parameterNumberName":"U-component_of_CURRENTS"},"data":[0,0,0,0,0,0,0,0,0,0,0,0,0,0,0,0,0,0,0,0,0,0,0,0,0,0,0,0,0,0,0,0,0,0,0,0,0,0,0,0,0,0,0,0,0,0,0,0,0,0,0,0,0,0,0,0,0,0,0.1846,0.1847,0,0.192,0.192,0.1921,0.1975,0.1976,0.1977,0.1977,0.2098,0.2101,0.2103,0,0,0,0,0,0,0,0,0,0,0,0,0,0.1756,0.1757,0.1846,0.1847,0.1849,0.192,0.192,0.1921,0.1975,0.1976,0.1977,0.1978,0.2098,0.21,0.2103,0,0,0,0,0,0,0,0,0,0,0,0,0,0.1806,0.1757,0.1846,0.1887,0.1891,0.192,0.192,0.1921,0.1975,0.1976,0.1977,0.1978,0.2097,0.21,0.2104,0.2104,0,0,0.2115,0.2117,0,0,0,0,0,0,0,0,0.1803,0.1808,0.1879,0.1884,0.1889,0.1942,0.1933,0.1986,0.1975,0.194,0.1977,0.1979,0.2052,0.2059,0.2065,0.2109,0.2115,0.2116,0.2118,0.212,0.2121,0,0,0,0,0,0,0,0.1799,0.1806,0.1872,0.1881,0.1887,0.1903,0.191,0.1943,0.1987,0.1943,0.1948,0.1961,0.2055,0.2061,0.2069,0.2116,0.2116,0.2119,0.2121,0.2123,0.227,0.2272,0,0,0,0,0,0,0.1795,0.1802,0.187,0.1875,0.1852,0.1903,0.1912,0.1921,0.1985,0.1997,0.196,0.1963,0.2054,0.2064,0.2073,0.2194,0.212,0.2123,0.2125,0.2269,0.2271,0.2273,0,0,0,0,0,0,0.1793,0.18,0.1867,0.1843,0.1853,0.1904,0.1914,0.1922,0.1981,0.1998,0.201,0.2016,0.2056,0.2068,0.2137,0.2194,0.2125,0.2128,0.2267,0.2269,0.2272,0.236,0,0,0,0,0,0,0.179,0.1799,0.1822,0.1843,0.1854,0.1911,0.1913,0.1923,0.1985,0.1992,0.2049,0.2059,0.2058,0.2131,0.214,0.2198,0.2131,0.2265,0.2268,0.2271,0.2355,0.2365,0.2374,0,0,0,0,0,0.1786,0.1806,0.1822,0.1832,0.1878,0.1913,0.1921,0.1958,0.1987,0.2015,0.2055,0.2059,0.2158,0.2136,0.2146,0.2206,0.2263,0.2267,0.2271,0.235,0.2363,0.2373,0,0,0,0,0,0,0.1781,0.1814,0.1833,0.1863,0.1901,0.1924,0.1958,0.1989,0.2042,0.2058,0.2082,0.2094,0.2169,0.2175,0.215,0.2255,0.2211,0.2217,0.2268,0.228,0.2289,0.2282,0.2134,0,0,0,0,0,0.1789,0.1818,0.1848,0.1882,0.19,0.1941,0.197,0.1994,0.2034,0.2061,0.21,0.2141,0.2184,0.2224,0.2244,0.2313,0.2322,0.2357,0.2366,0.2375,0.2375,0.2458,0.2475,0.2285,0.2285,0.2285,0,0,0.1797,0.1823,0.184,0.1885,0.1916,0.1946,0.1962,0.2012,0.2054,0.2065,0.2144,0.2173,0.2205,0.227,0.2307,0.2293,0.2429,0.2379,0.2386,0.2382,0.2464,0.2482,0.2499,0.2288,0.2287,0.2287,0,0,0.1812,0.1851,0.1873,0.1904,0.1956,0.198,0.2009,0.2054,0.2096,0.2168,0.2184,0.2251,0.2321,0.235,0.2377,0.2456,0.2467,0.2473,0.2536,0.2618,0.2634,0.2649,0.2668,0.2683,0.2492,0.2492,0.2492,0,0.1824,0.1851,0.1888,0.1914,0.1948,0.2003,0.2034,0.208,0.2147,0.2192,0.2206,0.233,0.2357,0.245,0.2473,0.248,0.2509,0.2494,0.2632,0.2647,0.266,0.2676,0.2693,0.2497,0.2496,0.2496,0.2495,0,0.1837,0.1876,0.1896,0.1947,0.1989,0.2028,0.2086,0.2149,0.2217,0.2262,0.2376,0.242,0.2505,0.2525,0.2529,0.2644,0.2625,0.2626,0.2606,0.2685,0.2696,0.2711,0.2503,0.2502,0.25,0.2499,0,0,0.1813,0.1889,0.19,0.1936,0.201,0.2046,0.2129,0.2214,0.2297,0.2374,0.2486,0.2561,0.2611,0.2643,0.2672,0.2736,0.285,0.2734,0.2736,0.2755,0.3004,0.2819,0.2818,0.2897,0.29,0.2903,0.2967,0,0.1816,0.1867,0.191,0.1981,0.201,0.2092,0.2166,0.2257,0.2356,0.2475,0.2557,0.2666,0.2654,0.2727,0.2794,0.2845,0.2899,0.283,0.292,0.2921,0.2752,0.2832,0.2915,0.2978,0.2982,0.2984,0.2986,0,0.18,0.1844,0.1901,0.2005,0.2029,0.2093,0.2242,0.2315,0.2476,0.2562,0.2693,0.2767,0.2894,0.2873,0.3008,0.2976,0.2997,0.3012,0.3016,0.2822,0.2766,0.2885,0.3014,0.3011,0.3009,0.3008,0.3006,0,0.1746,0.1838,0.1893,0.1925,0.2043,0.2116,0.22,0.2349,0.2435,0.2641,0.2737,0.289,0.3002,0.3068,0.3115,0.3094,0.3231,0.3208,0.3044,0.303,0.3138,0.3122,0.3289,0.3289,0.3289,0.3289,0.3288,0,0.1705,0.1756,0.1887,0.1913,0.2008,0.2105,0.2233,0.2346,0.2518,0.2621,0.2791,0.2904,0.3067,0.3161,0.3169,0.315,0.3288,0.3057,0.3047,0.3168,0.3155,0.3147,0.313,0.3291,0.329,0.329,0.329,0,0.1623,0.1703,0.177,0.1916,0.1979,0.2046,0.2232,0.2304,0.2499,0.265,0.2726,0.2963,0.3091,0.318,0.3298,0.3208,0.321,0.3159,0.3262,0.3256,0.2933,0.292,0.2987,0.2981,0.2976,0.2972,0.2969,0,0.1581,0.1611,0.176,0.1793,0.1868,0.1996,0.2064,0.2272,0.2349,0.2652,0.2696,0.2926,0.3049,0.3058,0.3174,0.3173,0.313,0.3095,0.3017,0.2924,0.291,0.2904,0.2897,0.2961,0.296,0.2959,0.2957,0,0.1496,0.1562,0.1603,0.1675,0.1754,0.1832,0.1963,0.2026,0.2255,0.2467,0.2623,0.2728,0.2867,0.2961,0.2982,0.2974,0.3104,0.3043,0.3052,0.2979,0.2894,0.2883,0.2882,0.2941,0.2943,0.2945,0.2946,0,0.143,0.1416,0.1467,0.1518,0.1585,0.1611,0.1735,0.1847,0.1972,0.232,0.2378,0.2622,0.2849,0.2859,0.2881,0.2863,0.2816,0.2705,0.2731,0.2751,0.2644,0.25,0.2425,0,0,0,0,0,0.1343,0.1287,0.1307,0.1309,0.1362,0.1419,0.161,0.1743,0.2013,0.2052,0.2213,0.2336,0.2458,0.2597,0.2528,0.2745,0.2792,0.2651,0.2667,0.2848,0.2867,0.2764,0,0,0,0,0,0,0.1258,0.1253,0.1232,0.1116,0.109,0.1135,0.1258,0.1467,0.1521,0.183,0.1914,0.2148,0.2294,0.2437,0.2458,0.2491,0.2447,0.2806,0.2799,0.2837,0.2854,0.287,0.277,0,0,0,0,0]},{"header":{"parameterUnit":"m.s-1","parameterCategory":2,"la1":30.2991,"la2":30.254,"lo1":-89.0895,"lo2":-89.0444,"dy":0.0017,"dx":0.0017,"nx":28,"ny":28,"refTime":"2023-03-16T21:00:00:Z","depth":"4","parameterNumber":3,"parameterNumberName":"V-component_of_CURRENTS"},"data":[0,0,0,0,0,0,0,0,0,0,0,0,0,0,0,0,0,0,0,0,0,0,0,0,0,0,0,0,0,0,0,0,0,0,0,0,0,0,0,0,0,0,0,0,0,0,0,0,0,0,0,0,0,0,0,0,0,0,0.0056,0.0056,0,0.005,0.005,0.005,0.0032,0.0032,0.0031,0.0031,-0.0001,-0.0002,-0.0002,0,0,0,0,0,0,0,0,0,0,0,0,0,0.0055,0.0055,0.0056,0.0056,0.0056,0.005,0.005,0.005,0.0032,0.0032,0.0031,0.0031,-0.0001,-0.0002,-0.0002,0,0,0,0,0,0,0,0,0,0,0,0,0,0.0054,0.0055,0.0056,0.0046,0.0045,0.005,0.005,0.005,0.0033,0.0032,0.0031,0.0031,-0.0001,-0.0001,-0.0002,0.0008,0,0,-0.0004,-0.0004,0,0,0,0,0,0,0,0,0.0054,0.0054,0.0047,0.0046,0.0045,0.0041,0.0038,0.0034,0.0033,0.0038,0.0031,0.003,0.001,0.0009,0.0011,0.0006,0.0005,-0.0004,-0.0005,-0.0005,-0.0005,0,0,0,0,0,0,0,0.0054,0.0054,0.0054,0.0047,0.0046,0.0042,0.0041,0.0037,0.0028,0.0037,0.0036,0.0034,0.001,0.0011,0.001,0.0004,-0.0004,-0.0005,-0.0005,-0.0005,-0.0005,-0.0005,0,0,0,0,0,0,0.0054,0.0054,0.0055,0.0054,0.0047,0.0043,0.0042,0.0043,0.0029,0.0026,0.0035,0.0034,0.0013,0.001,0.0008,0.0024,-0.0005,-0.0005,-0.0006,-0.0006,-0.0005,-0.0005,0,0,0,0,0,0,0.0054,0.0054,0.0055,0.0053,0.0053,0.0043,0.0045,0.0044,0.0045,0.0027,0.0024,0.0037,0.0012,0.0009,0.0007,0.0023,-0.0006,-0.0006,-0.0006,-0.0005,-0.0005,0.0053,0,0,0,0,0,0,0.0054,0.0054,0.0057,0.0053,0.0053,0.0066,0.0046,0.0044,0.0044,0.0042,0.0028,0.0024,0.0011,0.0008,0.0007,0.0021,-0.0007,-0.0006,-0.0006,-0.0005,0.005,0.0055,0.0059,0,0,0,0,0,0.0054,0.007,0.0058,0.0058,0.0057,0.0067,0.0067,0.0058,0.0045,0.0055,0.004,0.0025,0.0011,0.0009,0.0006,0.0021,-0.0007,-0.0006,-0.0005,0.0048,0.0054,0.0059,0,0,0,0,0,0,0.0073,0.0069,0.0056,0.0069,0.0068,0.0064,0.0074,0.0062,0.0059,0.0054,0.0033,0.0029,0.0032,0.0017,0.0014,0.0021,-0.0001,-0.0001,0.004,0.0046,0.005,0.0057,-0.0007,0,0,0,0,0,0.0077,0.0086,0.0078,0.0088,0.0091,0.008,0.0082,0.0075,0.007,0.0067,0.0055,0.0041,0.0035,0.0033,0.0024,0.0032,-0.0011,0.0038,0.0042,0.0046,0.005,-0.0011,-0.0012,-0.0002,-0.0002,-0.0002,0,0,0.0087,0.0085,0.0089,0.0092,0.0091,0.0109,0.0081,0.009,0.0103,0.0065,0.0079,0.0057,0.004,0.0047,0.0047,0.0037,0.002,0.0047,0.0051,0.0052,-0.001,-0.0011,-0.0012,-0.0001,-0.0001,-0.0001,0,0,0.0116,0.011,0.0128,0.0133,0.0133,0.0132,0.0135,0.0131,0.0128,0.0137,0.0109,0.0093,0.0093,0.0077,0.0071,0.0094,0.0045,0.0094,0.0127,0.0068,0.0066,0.0065,0.0007,-0.0001,0.0098,0.0098,0.0098,0,0.0124,0.0148,0.0136,0.0157,0.0169,0.0145,0.0173,0.0172,0.0165,0.0164,0.015,0.0126,0.0108,0.0106,0.0115,0.0104,0.0062,0.011,0.0073,0.0071,0.0068,0.0009,-0.0,0.0101,0.0101,0.01,0.01,0,0.0168,0.0188,0.0204,0.0222,0.0233,0.0255,0.0251,0.0256,0.0246,0.0234,0.0225,0.0191,0.0176,0.0166,0.0153,0.013,0.0103,0.0084,0.006,0.007,0.0007,-0.0003,0.0105,0.0104,0.0103,0.0103,0,0,0.0182,0.0226,0.0231,0.0254,0.0271,0.0286,0.0311,0.0322,0.0333,0.0309,0.0314,0.0289,0.0253,0.0242,0.0208,0.0159,0.01,0.0121,0.0116,0.0064,-0.0033,-0.0022,-0.0033,0.0073,0.0071,0.007,-0.0069,0,0.0219,0.0277,0.0288,0.0345,0.0377,0.0372,0.0398,0.04,0.0392,0.0389,0.0337,0.0329,0.0288,0.0279,0.0223,0.0135,0.0076,0.014,-0.0036,-0.0041,-0.0032,-0.0043,0.0066,-0.0077,-0.008,-0.0082,-0.0083,0,0.0258,0.0294,0.0359,0.041,0.0423,0.0455,0.0486,0.0503,0.0488,0.0478,0.0448,0.0405,0.0345,0.0302,0.0146,0.0189,0.0086,0.0005,-0.0002,-0.0018,-0.0049,-0.0091,-0.0103,-0.0101,-0.01,-0.0099,-0.0097,0,0.0278,0.0344,0.04,0.0419,0.047,0.0501,0.0526,0.0531,0.0556,0.0533,0.0537,0.0451,0.042,0.0277,0.0127,0.013,-0.0061,-0.0081,-0.0175,-0.0176,-0.017,-0.0167,-0.0207,-0.0206,-0.0206,-0.0206,-0.0205,0,0.0314,0.0358,0.042,0.0452,0.0518,0.0538,0.0599,0.0605,0.0624,0.0656,0.0585,0.0582,0.0412,0.0292,0.0135,-0.0046,-0.006,-0.0174,-0.0211,-0.0142,-0.0134,-0.0178,-0.0173,-0.0211,-0.021,-0.0209,-0.0208,0,0.0324,0.0365,0.0434,0.0505,0.0534,0.0579,0.0664,0.0706,0.071,0.0749,0.0748,0.0675,0.0523,0.0333,0.0102,-0.0016,-0.0205,-0.0271,-0.0182,-0.0211,-0.0287,-0.0278,-0.0392,-0.0392,-0.0393,-0.0394,-0.0394,0,0.0335,0.0374,0.0471,0.0525,0.0566,0.0643,0.0704,0.0745,0.0801,0.0808,0.0832,0.0715,0.0637,0.0326,0.0114,-0.0196,-0.0235,-0.0336,-0.0314,-0.0282,-0.0307,-0.0296,-0.0286,-0.0395,-0.0395,-0.0395,-0.0396,0,0.0354,0.039,0.0447,0.0564,0.0647,0.074,0.0835,0.0879,0.0927,0.0924,0.091,0.0761,0.0592,0.035,0.0113,-0.011,-0.0271,-0.0344,-0.0344,-0.0324,-0.0287,-0.0309,-0.0298,-0.0398,-0.0398,-0.0397,-0.0397,0,0.0368,0.0412,0.0503,0.0607,0.0712,0.0828,0.0866,0.0943,0.099,0.0997,0.0987,0.0801,0.07,0.0393,0.017,-0.0042,-0.0098,-0.0163,-0.0174,-0.0174,-0.0066,0.0015,-0.0037,0,0,0,0,0,0.0385,0.0455,0.055,0.0677,0.0782,0.0853,0.0959,0.0992,0.1028,0.1032,0.1019,0.0861,0.0562,0.0434,0.0223,0.0135,-0.0153,-0.0121,-0.0237,-0.041,-0.0408,-0.0316,0,0,0,0,0,0,0.0405,0.0493,0.0554,0.0721,0.0815,0.0945,0.1014,0.1036,0.1045,0.104,0.0886,0.081,0.0514,0.0682,0.022,0.0154,0.0053,-0.0265,-0.0269,-0.0412,-0.0409,-0.0407,-0.0312,0,0,0,0,0]}]]